STARLINK-30149 (57516 NORAD) Tracking and Keplerian Element Data

This shows tracking and keplerian element data for the satellite.

Feedback or suggestion? Click here.




ElementValue
Catalog57516
NameSTARLINK-30149
Epoch Orbit427
Epoch Day238.91667824
Epoch Year2023
RAAN12.1725
Inclination43.0005
Eccentricity0.0001113
Argument of Perigee262.7046
Mean Anonmoly252.9936
Mean Motion15.51386066
Decay Rate-0.0168715
L11 57516U 23113Y 23238.91667824 -.01687150 00000+0 -31245-1 0 9990
L22 57516 43.0005 12.1725 0001113 262.7046 252.9936 15.51386066 4279



Live tracking and technical data element details for STARLINK-30149 (NORAD 57516). STARLINK-30149 can be tracked NOW for your location showing map with azimuth and elevation plus other details from your city location.







IsCatalogInMostPopularTable: catalog: 57516, numindb: 6
Update: records affected: 1



GetName: 57516 STARLINK-30149

Hit Count: updated at: Tue, 26 Sep 2023 11:34:50 GMT